Погода в Суригао

Филиппины     9°43′46″N   125°29′09″E
темп.,
°C
ветер,
м/с
пор.,
м/с
влажн.,
%
обл.,
%
осадки,
мм/ч
давл.,
гПа
погр.,
м
12 мая, ср
ср1223:00+26в35856 0.1 1010447
02:00+26в45856 0.4 1008401
05:00+26в4683100 0.1 1009461
08:00+28в467892 0.4 1010809
11:00+29в577163 1.8 1009825
14:00+29всв677275 2.1 1007763
17:00+27в588193 0.1 1008692
20:00+27вюв4783100 0.1 1009568
13 мая, чт
чт1323:00+26вюв358556 0.0 1009458
02:00+26в358742 0.0 1007397
05:00+26в348812 0.2 1008401
08:00+28в458012 0.6 1010768
11:00+29всв467241 0.4 1008841
14:00+29всв46715 0.6 1007802
17:00+28всв47766 0.0 1007804
20:00+27в478118 0.0 1009601
14 мая, пт
пт1423:00+26в478531 0.1 1008555
02:00+26вюв588584 1.0 1007608
05:00+26в478564 0.6 1007547
08:00+27в588319 2.1 1009832
11:00+27в698745 3.7 1008797
14:00+27в588354 5.4 1006794
17:00+27в6985100 0.7 1006748
20:00+26в7108638 1.1 1008744
15 мая, сб
сб1523:00+26вюв6984100 0.0 1008613
02:00+26в6982100 0.2 1007661
05:00+26вюв698238 0.3 1008604
08:00+25вюв599199 1.8 1009536
11:00+26в4785100 3.7 1008447
14:00+27в578095 4.9 1007611
17:00+26вюв698288 0.6 1007554
20:00+26вюв3581100 0.6 1009296
16 мая, вс
вс1623:00+26вюв458288 0.0 1009373
02:00+26в358391 0.0 1007407
05:00+25в358565 0.1 1007366
08:00+27в357819 0.1 1009676
11:00+29всв457110 0.9 1008832
14:00+29всв46685 0.9 1006847
17:00+28всв46776 0.0 1006766
20:00+27в468327 0.0 1008522